This demonstration page uses our WeatherBlox Daily Observations layout. Learn more.

Left ArrowRight Arrow

44.89941, -97.11507

Hourly Observations for June 15, 2018

Temp ( °F °C ) Dew Point ( °F °C ) Humidity (%) Winds ( mph kmh ) Pressure ( in mb ) Visibility ( mi km ) Precip ( " mm )
12:53 am 00:53 Clear 74 23.3 70 21.1 88 88 SSE 16 26 29.58 1002 10 16 0.00 0.00
1:53 am 01:53 Clear 75 23.9 70 21.1 84 84 SSE 18 30 29.58 1002 10 16 0.00 0.00
2:53 am 02:53 Clear 75 23.9 70 21.1 84 84 S 18 30 29.57 1002 10 16 0.00 0.00
3:53 am 03:53 Clear 74 23.3 69 20.6 85 85 S 10 17 29.59 1002 10 16 0.00 0.00
4:53 am 04:53 Clear 73 22.8 67 19.4 81 81 SSE 9 15 29.58 1002 10 16 0.00 0.00
5:53 am 05:53 Sunny 74 23.3 67 19.4 79 79 SSE 13 20 29.56 1001 10 16 0.00 0.00
6:53 am 06:53 Sunny 73 22.8 68 20 84 84 S 7 11 29.58 1002 10 16 0.00 0.00
7:53 am 07:53 Sunny 76 24.4 68 20 77 77 S 10 17 29.57 1001 10 16 0.00 0.00
8:53 am 08:53 Sunny 76 24.4 67 19.4 74 74 S 9 15 29.58 1002 10 16 0.00 0.00
9:53 am 09:53 Sunny 74 23.3 66 18.9 76 76 S 9 15 29.59 1002 10 16 0.00 0.00
10:53 am 10:53 Sunny 78 25.6 67 19.4 69 69 WSW 6 9 29.58 1002 10 16 0.00 0.00
11:53 am 11:53 Sunny 80 26.7 67 19.4 64 64 SSW 9 15 29.61 1003 10 16 0.00 0.00
12:53 pm 12:53 Sunny 82 27.8 67 19.4 60 60 WNW 8 13 29.62 1003 10 16 0.00 0.00
1:53 pm 13:53 Sunny 83 28.3 67 19.4 59 59 Calm 29.62 1003 10 16 0.00 0.00
2:53 pm 14:53 Sunny 85 29.4 65 18.3 51 51 SSW 3 6 29.61 1003 10 16 0.00 0.00
3:53 pm 15:53 Sunny 87 30.6 68 20 53 53 SSW 7 11 29.62 1003 10 16 0.00 0.00
4:53 pm 16:53 Sunny 87 30.6 68 20 53 53 Calm 29.62 1003 10 16 0.00 0.00
5:53 pm 17:53 Sunny 89 31.7 69 20.6 52 52 Calm 29.60 1003 10 16 0.00 0.00
6:53 pm 18:53 Sunny 87 30.6 70 21.1 57 57 ENE 6 9 29.61 1003 10 16 0.00 0.00
7:53 pm 19:53 Sunny 86 30 68 20 55 55 SE 6 9 29.61 1003 10 16 0.00 0.00
8:53 pm 20:53 Sunny 83 28.3 68 20 61 61 Calm 29.62 1003 10 16 0.00 0.00
9:53 pm 21:53 Clear 79 26.1 70 21.1 74 74 Calm 29.65 1004 10 16 0.00 0.00
10:53 pm 22:53 Clear 79 26.1 70 21.1 74 74 ESE 3 6 29.65 1004 10 16 0.00 0.00
11:53 pm 23:53 Clear 76 24.4 70 21.1 82 82 Calm 29.66 1004 10 16 0.00 0.00

Powered by AerisWeather